This demonstration page uses our WeatherBlox Daily Observations layout. Learn more.

Left ArrowRight Arrow

Hourly Observations for September 25, 2018

Temp ( °F °C ) Dew Point ( °F °C ) Humidity (%) Winds ( mph kmh ) Pressure ( in mb ) Visibility ( mi km ) Precip ( " mm )
12:53 am 00:53 Cloudy 70 21.1 67 19.4 90 90 VRB 3 6 30.05 1018 10 16 0.00 0.00
1:53 am 01:53 Cloudy 70 21.1 67 19.4 90 90 S 6 9 30.05 1018 10 16 0.00 0.00
2:23 am 02:23 Cloudy 70 21.1 67 19.4 90 90 Calm 30.06 1018 10 16 0.00 0.00
2:53 am 02:53 Cloudy 70 21.1 67 19.4 90 90 VRB 5 7 30.04 1017 10 16 0.00 0.00
3:03 am 03:03 Cloudy 70 21.1 67 19.4 90 90 VRB 3 6 30.06 1018 10 16 0.00 0.00
3:42 am 03:42 Cloudy 70 21.1 67 19.4 90 90 Calm 30.03 1017 10 16 0.00 0.00
3:53 am 03:53 Cloudy 70 21.1 67 19.4 90 90 VRB 3 6 30.03 1017 10 16 0.00 0.00
4:53 am 04:53 Cloudy 69 20.6 67 19.4 93 93 VRB 3 6 30.03 1017 10 16 0.00 0.00
5:16 am 05:16 Cloudy 70 21.1 67 19.4 90 90 Calm 30.03 1017 10 16 0.00 0.00
5:24 am 05:24 Cloudy 70 21.1 67 19.4 90 90 Calm 30.03 1017 10 16 0.00 0.00
5:40 am 05:40 Cloudy 70 21.1 67 19.4 90 90 Calm 30.03 1017 10 16 0.00 0.00
5:53 am 05:53 Cloudy 70 21.1 67 19.4 90 90 Calm 30.03 1017 10 16 0.00 0.00
6:53 am 06:53 Cloudy 70 21.1 68 20 93 93 S 3 6 30.04 1017 10 16 0.00 0.03
7:53 am 07:53 Cloudy 70 21.1 68 20 93 93 Calm 30.04 1017 10 16 0.00 0.00
8:53 am 08:53 Cloudy 71 21.7 69 20.6 94 94 VRB 3 6 30.04 1017 10 16 0.00 0.00
9:14 am 09:14 Cloudy with Rain 72 22.2 69 20.6 91 91 SSW 7 11 30.06 1018 1 2 0.06 1.52
9:25 am 09:25 Cloudy with Light Rain 71 21.7 70 21.1 96 96 VRB 3 6 30.06 1018 4 6 0.07 1.78
9:43 am 09:43 Cloudy 72 22.2 70 21.1 94 94 VRB 5 7 30.06 1018 10 16 0.07 1.78
9:53 am 09:53 Cloudy 72 22.2 70 21.1 94 94 VRB 5 7 30.04 1017 10 16 0.07 1.78
10:11 am 10:11 Cloudy 72 22.2 70 21.1 94 94 VRB 6 9 30.06 1018 10 16 0.00 0.00
10:53 am 10:53 Cloudy 73 22.8 70 21.1 90 90 VRB 5 7 30.05 1018 10 16 0.00 0.00
11:53 am 11:53 Cloudy 73 22.8 70 21.1 90 90 VRB 6 9 30.04 1017 10 16 0.00 0.00
12:53 pm 12:53 Cloudy 74 23.3 70 21.1 88 88 VRB 6 9 30.05 1018 10 16 0.00 0.00
1:53 pm 13:53 Cloudy 75 23.9 70 21.1 84 84 SSW 5 7 30.04 1017 10 16 0.00 0.00
2:34 pm 14:34 Mostly Cloudy 75 23.9 70 21.1 84 84 VRB 6 9 30.00 1016 10 16 0.00 0.00
2:53 pm 14:53 Mostly Sunny 75 23.9 70 21.1 84 84 VRB 6 9 29.96 1015 10 16 0.00 0.00
3:53 pm 15:53 Partly Cloudy 80 26.7 71 21.7 74 74 SSW 10 17 29.95 1014 10 16 0.00 0.00
4:53 pm 16:53 Mostly Cloudy 79 26.1 71 21.7 77 77 SSW 6 9 29.93 1014 10 16 0.00 0.00
5:21 pm 17:21 Partly Cloudy 79 26.1 71 21.7 77 77 VRB 5 7 29.91 1013 10 16 0.00 0.00
5:53 pm 17:53 Sunny 78 25.6 72 22.2 82 82 VRB 3 6 29.93 1013 10 16 0.00 0.00
6:53 pm 18:53 Mostly Cloudy 77 25 71 21.7 82 82 S 8 13 29.94 1014 10 16 0.00 0.00
7:15 pm 19:15 Cloudy with Rain 75 23.9 72 22.2 90 90 S 7 11 29.97 1015 2 3 0.05 1.27
7:25 pm 19:25 Cloudy with Light Rain 75 23.9 72 22.2 90 90 S 3 6 29.97 1015 3 5 0.06 1.52
7:53 pm 19:53 Mostly Clear 74 23.3 72 22.2 94 94 SW 3 6 29.94 1014 10 16 0.06 1.52
8:53 pm 20:53 Clear 72 22.2 70 21.1 94 94 SSW 3 6 29.95 1014 10 16 0.01 0.25
9:51 pm 21:51 Cloudy 73 23 70 21 89 89 VRB 3 6 29.97 1015 10 16 0.00 0.00
9:53 pm 21:53 Cloudy 73 22.8 71 21.7 94 94 SSW 5 7 29.95 1014 10 16 0.00 0.00
10:23 pm 22:23 Cloudy 73 22.8 71 21.7 94 94 SSW 3 6 29.97 1015 10 16 0.00 0.00
10:53 pm 22:53 Cloudy 73 22.8 71 21.7 94 94 Calm 29.96 1015 10 16 0.00 0.00
11:19 pm 23:19 Cloudy 74 23.3 71 21.7 91 91 SW 7 11 29.97 1015 10 16 0.00 0.00
11:46 pm 23:46 Cloudy 74 23.3 71 21.7 91 91 SW 7 11 29.97 1015 10 16 0.00 0.00
11:53 pm 23:53 Cloudy 74 23.3 71 21.7 91 91 VRB 6 9 29.96 1015 10 16 0.00 0.00

Powered by AerisWeather